EW2910 Weather Reports


Display with metric or nautical units.
time (UTC)temp
F
wind
direction
speed
MPH
gust
MPH
rain 1hr
in
rain 24hr
in
rain mn
in
humidity
%
barometer
mb
20260903174604 78 0 0.0 7.0 0.02 2.26 0.03 95 1014.8
20260903173103 77 0 0.0 4.0 0.03 2.26 0.03 95 1015.0
20260903171608 78 0 0.0 3.0 0.03 2.26 0.03 94 1015.2
20260903164625 80 54 0.0 7.0 0.01 2.24 0.01 91 1015.7
20260903163108 82 96 0.0 6.0 0.00 2.23 0.00 88 1015.4
20260903161602 83 226 0.0 8.0 0.00 2.23 0.00 84 1015.5
20260903160130 86 0 1.0 8.0 0.00 2.23 0.00 83 1015.2
20260903154610 86 0 0.0 5.0 0.00 2.23 0.00 85 1015.5
20260903153108 85 0 0.0 2.0 0.00 2.23 0.00 85 1015.4
20260903151559 85 96 0.0 6.0 0.00 2.23 0.00 84 1015.3
20260903150111 86 90 2.0 7.0 0.00 2.23 0.00 82 1015.5
20260903144606 86 0 0.0 5.0 0.00 2.23 0.00 84 1015.4
20260903143111 85 0 0.0 4.0 0.00 2.23 0.00 86 1015.3
20260903141613 83 116 0.0 3.0 0.00 2.23 0.00 89 1015.4
20260903140107 82 0 0.0 4.0 0.00 2.23 0.00 93 1015.3
20260903134605 81 59 1.0 4.0 0.00 2.23 0.00 97 1015.2
20260903133105 80 0 0.0 2.0 0.00 2.23 0.00 98 1014.9
20260903131603 80 0 0.0 5.0 0.00 2.23 0.00 99 1015.0
20260903130103 79 46 0.0 0.0 0.00 2.23 0.00 99 1015.0
20260903124606 79 0 0.0 6.0 0.00 2.23 0.00 99 1015.0
20260903123102 78 0 0.0 6.0 0.00 2.23 0.00 99 1015.1
20260903121602 78 0 1.0 5.0 0.00 2.23 0.00 99 1014.7
20260903120107 77 0 0.0 3.0 0.00 2.23 0.00 100 1014.4
20260903114606 76 0 0.0 1.0 0.00 2.23 0.00 100 1014.3
20260903113101 76 0 0.0 0.0 0.00 2.23 0.00 99 1014.3
20260903111603 76 0 0.0 0.0 0.00 2.23 0.00 99 1014.2
20260903110105 75 0 0.0 0.0 0.00 2.23 0.00 99 1014.1
20260903104619 76 0 0.0 0.0 0.00 2.23 0.00 99 1013.8
20260903103103 76 0 0.0 0.0 0.00 2.23 0.00 99 1013.7
20260903101610 76 0 0.0 1.0 0.00 2.23 0.00 99 1013.7
20260903100109 76 0 0.0 0.0 0.00 2.23 0.00 99 1013.6
20260903094607 76 0 0.0 0.0 0.00 2.23 0.00 99 1013.6
20260903093112 76 0 0.0 0.0 0.00 2.23 0.00 99 1013.6
20260903091601 76 0 0.0 0.0 0.00 2.23 0.00 99 1013.5
20260903090101 77 0 0.0 0.0 0.00 2.23 0.00 99 1013.5
20260903084604 76 0 0.0 0.0 0.00 2.23 0.00 99 1013.4
20260903083102 76 0 0.0 0.0 0.00 2.23 0.00 99 1013.2
20260903081602 76 0 0.0 0.0 0.00 2.23 0.00 99 1013.3
20260903074559 76 0 0.0 0.0 0.00 2.23 0.00 99 1013.3
20260903073100 77 0 0.0 0.0 0.00 2.23 0.00 99 1013.7
20260903071611 77 0 0.0 0.0 0.00 2.23 0.00 99 1013.7
20260903070109 77 0 0.0 0.0 0.00 2.23 0.00 99 1013.9
20260903064600 77 0 0.0 0.0 0.00 2.23 0.00 99 1013.8
20260903063126 77 0 0.0 0.0 0.00 2.23 0.00 99 1014.1
20260903061601 77 0 0.0 1.0 0.00 2.23 0.00 99 1014.2
20260903060118 77 0 0.0 0.0 0.00 2.23 0.00 99 1014.2
20260903054600 77 0 0.0 0.0 0.00 2.23 0.00 99 1014.3
20260903053105 77 0 0.0 0.0 0.00 2.23 0.00 99 1014.4
20260903051602 77 0 0.0 0.0 0.00 2.23 0.00 99 1014.6
20260903050127 77 0 0.0 0.0 0.00 2.23 0.00 99 1014.6
20260903044559 77 0 0.0 0.0 0.00 2.24 0.00 99 1014.9
20260903043103 77 0 0.0 0.0 0.00 2.24 0.00 99 1015.0
20260903041602 77 0 0.0 0.0 0.00 2.24 0.00 99 1015.2
20260903040109 77 0 0.0 0.0 0.00 2.24 0.00 99 1015.1
20260903034603 77 0 0.0 0.0 0.00 2.24 2.24 99 1015.1
20260903033101 77 0 0.0 0.0 0.00 2.24 2.24 99 1015.1
20260903031605 77 0 0.0 0.0 0.00 2.24 2.24 99 1015.4
20260903030105 77 0 0.0 0.0 0.00 2.24 2.24 99 1015.3
20260903024608 77 0 0.0 0.0 0.00 2.24 2.24 99 1015.5
20260903023101 77 0 0.0 0.0 0.00 2.24 2.24 99 1015.3
20260903021612 77 0 0.0 0.0 0.00 2.24 2.24 99 1015.4
20260903014603 77 0 0.0 0.0 0.00 2.28 2.24 99 1015.1
20260903013102 77 0 0.0 3.0 0.00 2.28 2.24 98 1014.9
20260903011610 77 0 0.0 4.0 0.00 2.28 2.24 98 1014.8
20260903010103 77 51 2.0 7.0 0.00 2.28 2.24 98 1014.5
20260903004606 77 50 2.0 7.0 0.00 2.28 2.24 98 1014.2
20260903003102 78 49 0.0 6.0 0.00 2.28 2.24 98 1014.2
20260903001604 78 41 4.0 10.0 0.00 2.28 2.24 99 1014.5
20260903000107 79 0 1.0 3.0 0.00 2.28 2.24 99 1014.5
20260902234604 79 0 0.0 0.0 0.00 2.28 2.24 99 1014.3
20260902233103 78 0 0.0 0.0 0.00 2.28 2.24 99 1014.2
20260902231607 78 0 0.0 1.0 0.00 2.28 2.24 99 1014.0
20260902224603 78 0 0.0 2.0 0.01 2.28 2.24 99 1014.0
20260902223107 78 0 0.0 0.0 0.02 2.28 2.24 99 1014.0
20260902221600 77 0 0.0 0.0 0.06 2.28 2.24 99 1014.1
20260902220107 76 0 0.0 0.0 0.12 2.28 2.24 99 1013.8
20260902214606 75 0 0.0 0.0 0.15 2.28 2.23 98 1013.5
20260902213105 75 0 0.0 0.0 0.18 2.27 2.22 98 1013.7
20260902211608 76 0 0.0 4.0 0.42 2.23 2.18 98 1014.1
20260902204604 76 81 2.0 6.0 1.81 2.14 2.08 98 1014.2
20260902203101 76 23 0.0 6.0 2.03 2.09 2.04 97 1014.3
20260902201607 77 8 1.0 11.0 1.74 1.81 1.75 97 1014.4
20260902200113 79 29 8.0 14.0 0.72 0.79 0.73 94 1014.3
20260902194604 81 100 4.0 12.0 0.26 0.34 0.27 92 1014.0
20260902193101 86 104 3.0 11.0 0.00 0.08 0.01 84 1013.9
20260902191602 90 0 5.0 11.0 0.00 0.08 0.01 74 1014.2
20260902184602 90 1 6.0 12.0 0.00 0.08 0.01 74 1014.2
20260902183109 91 320 6.0 12.0 0.00 0.08 0.01 72 1014.6
20260902181602 91 41 3.0 11.0 0.00 0.08 0.01 72 1014.5
20260902180131 91 9 2.0 7.0 0.00 0.08 0.01 70 1014.8